Flag for U.S.A. Weather past 2 weeks in Fullerton, California, U.S.A.

Now
61 °F

Clear.


Feels Like: 61 °F
Forecast: 62 / 86 °F
Wind: No wind

Location: Fullerton Municipal Airport

Current Time: Sep 30, 2014 at 7:14:05 AM

Latest Report: Sep 30, 2014 at 6:53 AM


Visibility: 10 mi

Pressure: 29.84 "Hg

Humidity: 78%

Dew point: 54 °F

Location of FullertonLocation

Historic Weather in Fullerton — Graph

°F

Fullerton temperature yesterday

Maximum temperature yesterday: 83 °F (at 1:53 PM)
Minimum temperature yesterday: 62 °F (at 5:53 AM)
Average temperature yesterday: 71 °F

Past Weeks' High & Low Weather Summary

 TemperatureHumidityPressure
High102 °F (Sep 15, 1:53 PM)87% (Sep 22, 3:53 AM)29.99 "Hg (Sep 22, 3:53 AM)
Low62 °F (Sep 22, 5:53 AM)14% (Sep 24, 3:53 PM)29.66 "Hg (Sep 16, 2:53 PM)
Average76 °F59%29.85 "Hg
* Reported Sep 15 5:53 AM — Sep 30 5:53 AM, Fullerton, Weather by CustomWeather, © 2014

Note: Actual official high and low records may vary slightly from our data, if they occured in-between our weather recording intervals... More about our weather records

Advertising

Fullerton weather history for previous 24 hours

 ConditionsComfort  
Time TempWeatherWind HumidityBarometerVisibility
5:53 AM
Sep 30
63 °FClear.No wind73%29.84 "Hg10 mi
4:53 AM63 °FClear.3 mph73%29.84 "Hg10 mi
3:53 AM64 °FClear.5 mph73%29.84 "Hg10 mi
2:53 AM64 °FClear.No wind78%29.85 "Hg10 mi
1:53 AM66 °FClear.No wind73%29.85 "Hg10 mi
12:53 AM67 °FClear.No wind71%29.86 "Hg10 mi
11:53 PM
Sep 29
68 °FClear.No wind70%29.86 "Hg10 mi
10:53 PM68 °FClear.No wind68%29.87 "Hg10 mi
9:53 PM69 °FClear.No wind63%29.86 "Hg10 mi
8:53 PM70 °FClear.No wind61%29.85 "Hg10 mi
7:53 PM72 °FClear.3 mph57%29.84 "Hg10 mi
6:53 PM73 °FSunny.5 mph55%29.83 "Hg10 mi
5:53 PM75 °FSunny.9 mph54%29.83 "Hg10 mi
4:53 PM82 °FSunny.6 mph37%29.83 "Hg10 mi
3:53 PM83 °FSunny.5 mph36%29.83 "Hg10 mi
2:53 PM83 °FSunny.7 mph34%29.84 "Hg10 mi
1:53 PM83 °FSunny.5 mph40%29.86 "Hg10 mi
12:53 PM79 °FSunny.7 mph48%29.89 "Hg10 mi
11:53 AM77 °FSunny.5 mph50%29.90 "Hg10 mi
10:53 AM75 °FSunny.5 mph52%29.92 "Hg9 mi
9:53 AM72 °FSunny.No wind59%29.92 "Hg9 mi
8:53 AM70 °FSunny.No wind66%29.93 "Hg7 mi
7:53 AM66 °FSunny.No wind75%29.92 "Hg9 mi
Weather by CustomWeather, © 2014

See weather overviewHow to use our weather pages